Weather History for Clearfield, PA

Change the Weather History Date:

Saturday, November 17, 2012

  Actual Average (KDUJ) Record (KDUJ)
Temperature  
Mean Temperature 36 °F 39 °F  
Max Temperature 51 °F 46 °F 61 °F (1963)
Min Temperature 21 °F 31 °F 19 °F (1980)
Degree Days  
Heating Degree Days 29 26  
Month to date heating degree days 397  
Since 1 July heating degree days 1140  
Cooling Degree Days 0 0  
Month to date cooling degree days 0  
Year to date cooling degree days 362  
Moisture  
Dew Point 25 °F    
Average Humidity 72    
Maximum Humidity 96    
Minimum Humidity 39    
Precipitation  
Precipitation 0.00 in 0.13 in 1.66 in (1993)
Month to date precipitation 2.04  
Sea Level Pressure  
Sea Level Pressure 30.60 in    
Wind  
Wind Speed 2 mph (NNE)    
Max Wind Speed 8 mph    
Max Gust Speed -    
Visibility 10 miles    
Events      
T = Trace of Precipitation, MM = Missing Value Source: NWS Daily Summary

Daily Weather History Graph

Daily Weather History Graph

Search for Another Location

Airport:

Trip Planner

Search our weather history database for the weather conditions in past years. The results will help you decide how hot, cold, wet, or windy it might be!

Date:

Astronomy

Nov. 17, 2012 Rise Set
Actual Time 7:04 AM EST 4:52 PM EST
Civil Twilight 6:34 AM EST 5:22 PM EST
Nautical Twilight 6:01 AM EST 5:55 PM EST
Astronomical Twilight 5:28 AM EST 6:28 PM EST
Moon 10:47 AM EST (11/17) 9:00 PM EST (11/17)
Length of Visible Light 10h 48m
Length of Day
9h 48m
Waxing Crescent, 20% of the Moon is Illuminated
Nov 17
Waxing Crescent
Nov 20
First Quarter
Nov 28
Full
Dec 6
Last Quarter
Dec 13
New

Hourly Weather History & Observations

Time (EST) Temp. Windchill Dew Point Humidity Pressure Visibility Wind Dir Wind Speed Gust Speed Precip Events Conditions
12:54 AM 27.0 °F - 23.0 °F 85% 30.53 in 10.0 mi Calm Calm - N/A   Clear
1:54 AM 27.0 °F - 23.0 °F 85% 30.53 in 10.0 mi Calm Calm - N/A   Clear
2:54 AM 27.0 °F - 23.0 °F 85% 30.54 in 10.0 mi Calm Calm - N/A   Clear
3:54 AM 26.1 °F - 23.0 °F 88% 30.55 in 10.0 mi Calm Calm - N/A   Clear
4:54 AM 24.1 °F - 21.9 °F 91% 30.57 in 10.0 mi Calm Calm - N/A   Clear
5:54 AM 21.9 °F 15.7 °F 19.9 °F 92% 30.59 in 10.0 mi NNE 4.6 mph - N/A   Clear
6:54 AM 21.9 °F 17.2 °F 21.0 °F 96% 30.61 in 10.0 mi North 3.5 mph - N/A   Clear
7:54 AM 24.1 °F - 23.0 °F 96% 30.64 in 10.0 mi Calm Calm - N/A   Clear
8:54 AM 28.9 °F - 26.1 °F 89% 30.65 in 10.0 mi Calm Calm - N/A   Clear
9:54 AM 35.1 °F 32.2 °F 28.0 °F 76% 30.66 in 10.0 mi North 3.5 mph - N/A   Clear
10:54 AM 41.0 °F 37.1 °F 28.9 °F 62% 30.65 in 10.0 mi NE 5.8 mph - N/A   Clear
11:54 AM 45.0 °F - 28.9 °F 53% 30.62 in 10.0 mi Calm Calm - N/A   Clear
12:54 PM 48.9 °F - 26.1 °F 41% 30.61 in 10.0 mi NE 3.5 mph - N/A   Clear
1:54 PM 51.1 °F - 27.0 °F 39% 30.59 in 10.0 mi Variable 4.6 mph - N/A   Clear
2:54 PM 50.0 °F - 27.0 °F 41% 30.59 in 10.0 mi East 3.5 mph - N/A   Clear
3:54 PM 50.0 °F - 27.0 °F 41% 30.58 in 10.0 mi East 3.5 mph - N/A   Clear
4:54 PM 46.9 °F - 27.0 °F 46% 30.59 in 10.0 mi East 3.5 mph - N/A   Clear
5:54 PM 43.0 °F 41.3 °F 28.0 °F 56% 30.61 in 10.0 mi North 3.5 mph - N/A   Clear
6:54 PM 37.0 °F 32.4 °F 28.0 °F 70% 30.63 in 10.0 mi North 5.8 mph - N/A   Clear
7:54 PM 34.0 °F 28.0 °F 27.0 °F 75% 30.63 in 10.0 mi North 6.9 mph - N/A   Clear
8:54 PM 32.0 °F 24.8 °F 26.1 °F 79% 30.64 in 10.0 mi North 8.1 mph - N/A   Clear
9:54 PM 30.0 °F 23.2 °F 25.0 °F 82% 30.62 in 10.0 mi North 6.9 mph - N/A   Clear
10:54 PM 30.9 °F 27.5 °F 26.1 °F 82% 30.61 in 10.0 mi ENE 3.5 mph - N/A   Clear
11:54 PM 28.0 °F 20.8 °F 25.0 °F 88% 30.62 in 10.0 mi North 6.9 mph - N/A   Clear